EHI
0 0 0 0 0 0 0 0 0 0 0 0 0 0 0 0 0 0 0 0 0 0 0 0 0 0 0 0 0 0 0 0 0 0 0 0 0 0
0 0 0 0 0 0 0 0 0 0 0 0 0 0 0 0 0 0 0 0 0 0 0 0 0 0 0 0 0 0 0 0 0 0 0 0 0 0
0 0 0 0 0 0 0 0 0 0 0 0 0 0 0 0 0 0 0 0 0 0 0 0 0 0 0 0 0 0 0 0 0 0 0 0 0 0
0 0 0 0 0 0 0 0 0 0 0 0 0 0 0 0 0 0 0 0 0 0 0 0 0 0 0 0 0 0 0 0 0 0 0 0 0 0
0 0 0 0 0 0 0 0 0 0 0 0 0 0 0 0 0 0 0 0 0 0 0 0 0 0 0 0 0 0 0 0 0 0 0 0 0 0
0 0 0 0 0 0 0 0 0 0 0 0 0 0 0 0 0 0 0 0 0 0 0 0 0 0 0 0 0 0 0 0 0 0 0 0 0 0
0 0 0 0 0 0 0 0 0 0 0 0 0 0 0 0 0 0 0 0 0 0 0 0 0 0 0 0 0 0 0 0 0 0 0 0 0 0
1 0 0 0 0 0 0 0 0 0 0 0 0 0 0 0 0 0 0 0 0 0 0 0 0 0 0 0 0 0 0 0 0 0 0 0 0 0
1 0 0 0 0 0 0 0 0 0 0 0 0 0 0 0 0 0 0 0 0 0 0 0 0 0 0 0 0 0 0 0 0 0 0 0 0 0
1 0 0 0 0 0 0 0 0 0 0 0 0 0 0 0 0 0 0 0 0 0 0 0 0 0 0 0 0 0 0 0 0 0 0 0 0 0
0 0 0 0 0 0 0 0 0 0 0 0 0 0 0 0 0 0 0 0 0 0 0 0 0 0 0 0 0 0 0 0 0 0 0 0 0 0
0 0 0 0 0 0 0 0 0 0 0 0 0 0 0 0 0 0 0 0 0 0 0 0 0 0 0 0 0 0 0 0 0 0 0 0 0 0
0 0 0 0 0 0 0 0 0 0 0 0 0 0 0 0 0 0 0 0 0 0 0 0 0 0 0 0 0 0 0 0 0 0 0 0 0 0
0 0 0 0 0 0 0 0 0 0 0 0 0 0 0 0 0 0 0 0 0 0 0 0 0 0 0 0 0 0 0 0 0 0 0 0 0 0
0 0 0 0 0 0 0 0 0 0 0 0 0 0 0 0 0 0 0 0 0 0 0 0 0 0 0 0 0 0 0 0 0 0 0 0 0 0
0 0 0 0 0 0 0 0 0 0 0 0 0 0 0 0 0 0 0 0 0 0 0 0 0 0 0 0 0 0 0 0 0 0 0 0 0 0
0 0 0 0 0 0 0 0 0 0 0 0 0 0 0 0 0 0 0 0 0 0 0 0 0 0 0 0 0 0 0 0 0 0 0 0 0 0
0 0 0 0 0 0 0 0 0 0 0 0 0 0 0 0 0 0 0 0 0 0 0 0 0 0 0 0 0 0 0 0 0 0 0 0 0 0
0 0 0 0 0 0 0 0 0 0 0 0 0 0 0 0 0 0 0 0 0 0 0 0 0 0 0 0 0 0 0 0 0 0 0 0 0 0
0 0 0 0 0 0 0 0 0 0 0 0 0 0 0 0 0 1 0 0 0 0 0 0 0 0 0 0 0 0 0 0 0 0 0 0 0 0
0 0 0 0 0 0 0 0 0 0 0 0 0 0 0 0 0 0 0 0 0 0 0 0 0 0 0 0 0 0 0 0 0 0 0 0 0 0
0 0 0 0 0 0 0 0 0 0 0 0 0 0 0 0 0 0 0 0 0 0 0 0 0 0 0 0 0 0 0 0 0 0 0 0 0 0
0 0 0 0 0 0 0 0 0 0 0 0 0 0 0 0 0 0 0 0 0 0 0 0 0 0 0 0 0 0 0 0 0 0 0 0 0 0
Wind_Speed
1 1 1 2 2 2 2 3 3 3 3 3 2 2 2 2 3 2 2 3 4 4 5 5 5 6 7 7 7 7 8 8 8 9 10 11 12 12
1 1 1 2 1 1 2 2 2 3 3 2 3 3 3 2 2 2 3 4 4 4 4 5 5 5 5 6 7 7 7 7 8 8 9 11 11 12
1 1 2 2 1 1 1 1 2 2 3 3 2 2 2 2 3 2 2 3 3 4 4 5 5 6 6 6 6 6 6 7 7 8 9 10 10 11
1 1 2 1 1 1 1 2 2 2 3 3 2 2 2 2 2 3 3 3 3 4 5 6 6 7 7 7 7 7 7 7 8 8 9 9 10 10
2 2 2 2 2 1 1 2 2 2 2 2 2 2 2 2 2 3 3 3 3 4 5 5 6 7 7 8 8 8 8 8 8 9 9 9 10 10
2 2 2 2 3 2 2 2 2 1 1 1 2 2 2 2 2 2 3 2 3 3 3 4 4 6 6 7 8 9 9 9 8 9 9 9 9 9
2 2 2 3 3 2 2 2 2 1 1 1 2 2 2 2 2 2 3 3 3 2 2 3 2 3 4 5 7 8 8 8 8 8 9 9 9 9
2 3 3 3 4 4 3 2 2 3 3 2 2 3 4 4 3 2 2 2 3 2 2 3 2 3 3 3 5 6 7 7 7 7 8 8 8 8
2 2 3 3 3 3 3 3 3 3 4 4 4 5 4 4 3 3 3 3 4 3 2 3 3 3 3 3 4 5 5 6 6 6 7 8 8 8
3 3 3 3 3 2 2 2 3 3 3 3 4 5 5 4 4 4 4 4 4 3 2 3 3 3 3 3 3 4 5 5 5 5 6 7 7 7
3 2 3 3 4 3 2 3 4 4 3 4 5 5 5 5 3 2 2 2 3 3 2 2 3 3 3 3 2 2 3 4 4 5 5 6 6 6
3 3 3 4 4 3 2 3 4 4 3 3 3 3 3 3 4 4 3 3 3 3 2 2 2 2 2 2 2 2 2 3 5 5 6 6 5 4
3 3 3 5 5 4 3 4 6 5 3 3 3 3 2 2 2 3 4 4 4 4 3 3 2 2 2 2 2 2 2 2 2 3 4 5 6 5
3 3 4 5 5 5 3 4 5 3 2 2 2 2 3 3 2 3 3 4 5 5 4 4 3 3 3 3 3 2 2 2 2 2 2 3 4 6
3 4 5 4 4 3 4 3 2 1 1 2 3 3 3 3 3 2 2 2 3 4 4 5 4 3 3 4 3 3 3 2 2 2 2 3 3 3
3 3 4 3 2 3 2 2 1 2 2 2 3 3 2 2 2 2 2 2 2 3 2 3 4 5 4 5 4 4 3 3 2 2 2 3 3 3
1 1 1 2 2 2 2 2 2 1 2 2 2 2 2 2 2 2 1 1 1 2 3 2 1 2 4 4 4 4 4 3 4 3 3 3 4 4
1 1 2 2 3 3 3 3 2 2 2 2 2 2 2 3 3 2 2 2 2 2 3 2 1 1 1 3 5 5 4 3 3 3 3 3 4 4
2 3 3 4 4 3 3 3 3 3 2 2 3 3 3 3 2 2 2 2 2 3 3 2 2 2 2 3 3 4 4 3 3 3 3 4 5 5
3 4 4 4 4 4 4 3 3 3 2 2 2 3 3 2 2 3 2 3 3 3 3 3 3 3 4 4 3 3 5 5 3 4 3 3 4 4
4 4 4 4 4 4 3 3 3 3 3 3 3 3 3 2 3 3 3 3 3 3 4 4 4 4 2 2 3 3 3 4 5 4 3 3 3 3
4 4 4 4 4 4 3 3 3 3 3 3 3 3 3 3 3 4 3 3 3 3 4 4 3 1 2 3 4 4 4 3 3 4 5 5 4 4
4 4 4 4 4 3 3 3 4 3 3 3 3 3 3 3 3 3 3 3 3 3 3 3 2 2 2 3 3 3 4 4 2 2 3 4 7 8
Wind_Direction
222 224 230 243 231 227 219 206 208 250 269 269 277 293 293 283 283 270 263 272 270 260 254 244 238 237 235 233 235 238 235 231 229 230 233 234 234 234
241 238 253 254 249 235 228 227 217 218 249 255 255 279 292 292 292 279 273 280 279 272 258 247 242 239 238 234 232 234 234 232 231 232 233 235 235 237
289 264 276 258 250 248 237 223 222 214 236 267 264 275 282 292 305 300 281 272 276 270 257 251 248 246 244 240 234 234 235 233 234 235 234 233 232 234
281 289 298 298 276 256 236 227 225 218 219 252 274 278 271 280 292 300 299 287 272 273 261 254 249 247 243 240 237 234 233 234 235 235 235 234 232 233
262 257 269 279 283 273 242 239 242 231 218 228 268 279 277 283 292 293 295 296 286 280 268 256 248 245 243 242 238 233 232 233 235 235 233 232 231 230
268 257 255 256 267 266 250 240 231 225 213 226 261 280 279 282 273 277 288 286 285 290 281 270 255 248 249 248 242 235 231 231 232 234 232 231 231 229
295 284 269 277 274 265 260 237 207 206 208 229 259 276 281 278 268 267 271 284 282 274 272 271 258 256 258 256 247 237 230 225 225 229 229 227 226 226
290 299 296 299 302 297 292 258 205 204 218 227 246 255 265 261 264 263 266 281 284 271 262 278 265 263 266 260 251 241 232 228 225 224 223 222 221 223
268 282 293 306 312 305 308 304 277 258 227 218 237 250 256 252 246 258 251 248 260 271 260 278 278 269 270 270 257 242 232 227 226 228 228 226 224 223
260 258 265 288 296 290 293 299 291 283 260 241 240 248 249 244 229 238 247 256 268 268 240 266 280 277 283 278 259 234 232 235 234 232 231 227 224 227
273 267 261 274 289 284 266 284 294 293 281 254 249 258 260 254 237 230 241 244 274 277 225 239 266 280 287 277 260 231 238 245 243 238 234 229 224 226
284 281 268 272 291 275 240 254 275 283 295 305 302 294 281 266 238 226 231 240 260 272 233 220 252 266 285 277 274 269 257 251 246 240 236 232 223 222
272 282 281 283 281 274 249 242 252 264 278 284 296 302 304 288 266 241 228 227 238 252 243 213 239 231 239 275 288 275 258 260 256 251 240 234 226 216
254 269 279 287 283 276 260 264 266 261 264 275 285 292 296 292 286 278 258 242 238 247 249 224 235 234 236 260 275 282 273 258 244 251 252 236 230 225
252 267 284 298 295 279 278 285 269 246 247 266 277 278 278 282 288 287 281 262 265 260 253 235 229 235 236 243 254 262 279 281 254 250 254 248 246 234
269 288 297 302 297 289 297 293 263 242 236 254 269 276 282 283 280 281 287 301 302 299 281 250 232 223 231 237 237 251 252 250 255 254 256 261 251 236
253 297 315 319 322 316 308 297 279 270 257 261 267 282 289 289 286 284 267 271 273 289 308 316 267 235 236 241 242 243 245 249 249 251 249 260 258 243
165 249 270 274 276 282 288 291 280 270 264 257 260 265 274 279 285 287 268 264 275 282 287 292 291 278 255 245 226 241 246 248 253 246 243 254 264 257
208 250 257 263 268 270 269 267 268 271 264 254 256 261 263 266 271 280 281 274 277 280 282 275 255 241 259 279 270 220 234 250 249 249 246 249 257 259
240 255 260 262 262 263 264 264 268 275 267 260 256 259 259 255 262 273 276 273 276 279 282 278 257 241 241 260 275 271 238 240 246 251 253 259 267 269
251 256 261 263 264 262 261 259 260 261 260 258 261 261 256 249 253 264 269 270 269 273 276 279 276 266 251 237 252 261 265 243 239 245 246 255 265 264
259 259 261 262 264 263 260 256 256 256 257 254 257 258 253 245 249 259 262 264 263 265 272 279 284 260 229 240 261 276 286 292 268 253 248 243 244 249
259 259 262 266 265 261 258 255 254 257 256 255 260 261 258 256 258 258 263 265 270 272 275 282 281 256 255 253 266 277 285 291 293 292 288 279 256 260